SL-19 R/B, 23440

Orbit data source: Space-Track

SL-19 R/B, 23440 is space debris in LEO originally from a launch on Mon, 26 Dec 1994 UTC launched from the Tyuratam Missile And Space Complex (TTMTR). Debris objects in space refer to the collection of defunct objects orbiting the Earth. Examples of debris include non-operational satellites, rocket bodies, and fragments generated from explosions, collisions, or faulty payload assembly.

Loading next visibility...
Identifier
23440, 1994-085B
Orbit
LEO
Country
Flag of CISCIS
Related business
Manufacturer
Khrunichev
Mission
Spacecraft
Bus & Motor
BRIZ, Unknown motor
Mass
~1,700 kg wet, ~1,700 kg dry
Launch date (UTC)
1994-12-26 (31 years ago)
Launch vehicle
Unknown
Launch site
Tyuratam Missile And Space Complex (TTMTR)
Object type
Payload
Rocket body
Debris
Shape & HBR
Hex Cyl + 1 Rod, 1.3 m
Radar Cross Section
5.049 m², Large (>1 m²)

Expand to show TLE details & history
Last TLE update: 8 hours ago

TLE from 8 hours ago
0 SL-19 R/B
1 23440U 94085B   26062.50103656 -.00000041  00000-0  37585-4 0  9999
2 23440  64.8326 139.2517 0178196   0.9055  89.4255 11.27134194283709
Epoch: 2026-03-03T12:01Z
TLE epoch observation values (Epoch: 2026-03-03T12:01:29.558Z)
Latitude
64.83009°
Longitude
-106.82863°
Altitude
2,035.979 km
Speed
6.889 km/s
True Right ascension
15h 39m 17s
True Declination
64° 43' 03"
Sunlit
Object was in daylight at epoch
Visualization orbit readout
Latitude
Unknown
Longitude
Unknown
Altitude
Unknown
Speed
Unknown
Apparent Right ascension
Unknown
Apparent Declination
Unknown
Sunlit
N/A
Visualization observer readout
Local Sidereal Time
23:31:34
Azimuth
Unknown
Elevation
Unknown
Doppler factor
Unknown
Orbital elements
Apogee altitude
2,173.065 km
Perigee altitude
1,873.643 km
Semi-major axis
8,401.491 km
Eccentricity
0.01782
Inclination
64.8326°
RAAN
139.2517°
Arg. of periapsis
0.9055°
True anomaly
91.4674°
Mean anomaly
89.4255°
Eccentric anomaly
90.44646°
Mean motion
2.81844 °/min
Orbital period
127.73 mins
BSTAR
0.000037585
Loading maneuver chart data...
Computing Atmospheric mass density...
Loading historical data...
Loading historical data...
Loading historical data...
Loading historical data...
Loading historical data...
Loading historical data...
Loading historical data...

Documentation

Showing up to 5 results
|